Time,TemperatureF,DewpointF,PressureIn,WindDirection,WindDirectionDegrees,WindSpeedMPH,WindSpeedGustMPH,Humidity,HourlyPrecipIn,Conditions,Clouds,dailyrainin,SoftwareType,DateUTC
2013-11-15 00:02:00,62.2,32.0,29.60,South,180,0.0,-999.0,32,-99.99,,,0.00,Acu-Link.com,2013-11-15 08:02:00,
2013-11-15 00:17:00,62.1,31.9,29.58,NW,315,0.0,-999.0,32,-99.99,,,0.00,Acu-Link.com,2013-11-15 08:17:00,
2013-11-15 00:32:00,61.9,30.1,29.57,WNW,292,0.0,-999.0,30,-99.99,,,0.00,Acu-Link.com,2013-11-15 08:32:00,
2013-11-15 00:48:00,62.1,28.6,29.57,West,270,1.1,-999.0,28,-99.99,,,0.00,Acu-Link.com,2013-11-15 08:48:00,
2013-11-15 01:03:00,62.2,28.7,29.56,West,270,0.0,-999.0,28,-99.99,,,0.00,Acu-Link.com,2013-11-15 09:03:00,
2013-11-15 01:18:00,62.2,29.6,29.55,WNW,292,0.0,-999.0,29,-99.99,,,0.00,Acu-Link.com,2013-11-15 09:18:00,
2013-11-15 01:33:00,63.0,29.4,29.56,WNW,292,1.7,-999.0,28,-99.99,,,0.00,Acu-Link.com,2013-11-15 09:33:00,
2013-11-15 01:49:00,63.0,29.4,29.54,WSW,247,0.0,-999.0,28,-99.99,,,0.00,Acu-Link.com,2013-11-15 09:49:00,
2013-11-15 02:04:00,62.6,29.9,29.54,NNE,22,0.0,-999.0,29,-99.99,,,0.00,Acu-Link.com,2013-11-15 10:04:00,
2013-11-15 02:19:00,61.7,32.3,29.54,West,270,0.0,-999.0,33,-99.99,,,0.00,Acu-Link.com,2013-11-15 10:19:00,
2013-11-15 02:35:00,61.2,33.3,29.54,SSE,157,0.0,-999.0,35,-99.99,,,0.00,Acu-Link.com,2013-11-15 10:35:00,
2013-11-15 02:50:00,60.6,33.5,29.53,NE,45,0.0,-999.0,36,-99.99,,,0.00,Acu-Link.com,2013-11-15 10:50:00,
2013-11-15 03:05:00,60.4,34.0,29.52,WSW,247,0.0,-999.0,37,-99.99,,,0.00,Acu-Link.com,2013-11-15 11:05:00,
2013-11-15 03:21:00,60.8,34.4,29.52,South,180,1.7,-999.0,37,-99.99,,,0.00,Acu-Link.com,2013-11-15 11:21:00,
2013-11-15 03:36:00,60.6,33.5,29.51,SSW,202,0.0,-999.0,36,-99.99,,,0.00,Acu-Link.com,2013-11-15 11:36:00,
2013-11-15 03:51:00,60.8,33.7,29.51,West,270,0.0,-999.0,36,-99.99,,,0.00,Acu-Link.com,2013-11-15 11:51:00,
2013-11-15 04:06:00,60.3,31.8,29.52,West,270,0.0,-999.0,34,-99.99,,,0.00,Acu-Link.com,2013-11-15 12:06:00,
2013-11-15 04:22:00,59.9,31.5,29.52,NE,45,0.0,-999.0,34,-99.99,,,0.00,Acu-Link.com,2013-11-15 12:22:00,
2013-11-15 04:37:00,59.5,32.5,29.52,SSW,202,1.7,-999.0,36,-99.99,,,0.00,Acu-Link.com,2013-11-15 12:37:00,
2013-11-15 04:52:00,60.8,33.0,29.51,SSW,202,2.2,-999.0,35,-99.99,,,0.00,Acu-Link.com,2013-11-15 12:52:00,
2013-11-15 05:08:00,60.8,32.3,29.52,West,270,0.0,-999.0,34,-99.99,,,0.00,Acu-Link.com,2013-11-15 13:08:00,
2013-11-15 05:23:00,60.1,30.9,29.53,East,90,0.0,-999.0,33,-99.99,,,0.00,Acu-Link.com,2013-11-15 13:23:00,
2013-11-15 05:38:00,58.5,33.0,29.54,SSW,202,0.0,-999.0,38,-99.99,,,0.00,Acu-Link.com,2013-11-15 13:38:00,
2013-11-15 05:54:00,58.1,31.3,29.53,NNE,22,0.0,-999.0,36,-99.99,,,0.00,Acu-Link.com,2013-11-15 13:54:00,
2013-11-15 06:09:00,58.1,33.3,29.53,SW,225,0.0,-999.0,39,-99.99,,,0.00,Acu-Link.com,2013-11-15 14:09:00,
2013-11-15 06:24:00,57.9,31.1,29.54,SSE,157,0.0,-999.0,36,-99.99,,,0.00,Acu-Link.com,2013-11-15 14:24:00,
2013-11-15 06:40:00,58.1,32.0,29.53,SSW,202,1.1,-999.0,37,-99.99,,,0.00,Acu-Link.com,2013-11-15 14:40:00,
2013-11-15 06:55:00,57.7,32.9,29.54,West,270,0.0,-999.0,39,-99.99,,,0.00,Acu-Link.com,2013-11-15 14:55:00,
2013-11-15 07:10:00,59.9,33.6,29.55,South,180,2.2,-999.0,37,-99.99,,,0.00,Acu-Link.com,2013-11-15 15:10:00,
2013-11-15 07:26:00,60.8,33.7,29.55,SSW,202,0.0,-999.0,36,-99.99,,,0.00,Acu-Link.com,2013-11-15 15:26:00,
2013-11-15 07:41:00,65.1,36.8,29.55,South,180,2.2,-999.0,35,-99.99,,,0.00,Acu-Link.com,2013-11-15 15:41:00,
2013-11-15 07:56:00,67.6,39.0,29.55,SSW,202,1.7,-999.0,35,-99.99,,,0.00,Acu-Link.com,2013-11-15 15:56:00,
2013-11-15 08:12:00,68.5,40.5,29.55,South,180,2.2,-999.0,36,-99.99,,,0.00,Acu-Link.com,2013-11-15 16:12:00,
2013-11-15 08:27:00,68.9,40.8,29.55,WSW,247,0.0,-999.0,36,-99.99,,,0.00,Acu-Link.com,2013-11-15 16:27:00,
2013-11-15 08:42:00,70.5,40.8,29.54,ESE,112,0.0,-999.0,34,-99.99,,,0.00,Acu-Link.com,2013-11-15 16:42:00,
2013-11-15 08:58:00,70.2,40.5,29.55,WSW,247,1.7,-999.0,34,-99.99,,,0.00,Acu-Link.com,2013-11-15 16:58:00,
2013-11-15 09:13:00,71.1,42.0,29.54,NW,315,1.7,-999.0,35,-99.99,,,0.00,Acu-Link.com,2013-11-15 17:13:00,
2013-11-15 09:28:00,72.7,41.1,29.54,North,0,2.2,-999.0,32,-99.99,,,0.00,Acu-Link.com,2013-11-15 17:28:00,
2013-11-15 09:43:00,72.3,44.6,29.53,SW,225,4.7,-999.0,37,-99.99,,,0.00,Acu-Link.com,2013-11-15 17:43:00,
2013-11-15 09:58:00,71.4,46.5,29.53,WSW,247,14.5,-999.0,41,-99.99,,,0.00,Acu-Link.com,2013-11-15 17:58:00,
2013-11-15 10:13:00,71.2,46.9,29.52,WNW,292,7.3,-999.0,42,-99.99,,,0.00,Acu-Link.com,2013-11-15 18:13:00,
2013-11-15 10:28:00,71.2,46.3,29.52,West,270,11.4,-999.0,41,-99.99,,,0.00,Acu-Link.com,2013-11-15 18:28:00,
2013-11-15 10:43:00,71.6,47.3,29.52,NW,315,8.9,-999.0,42,-99.99,,,0.00,Acu-Link.com,2013-11-15 18:43:00,
2013-11-15 10:58:00,71.8,47.5,29.51,West,270,13.0,-999.0,42,-99.99,,,0.00,Acu-Link.com,2013-11-15 18:58:00,
2013-11-15 11:13:00,72.3,47.3,29.50,NW,315,11.4,-999.0,41,-99.99,,,0.00,Acu-Link.com,2013-11-15 19:13:00,
2013-11-15 11:28:00,72.5,47.4,29.49,WSW,247,5.3,-999.0,41,-99.99,,,0.00,Acu-Link.com,2013-11-15 19:28:00,
2013-11-15 11:43:00,72.9,46.5,29.49,NE,45,8.3,-999.0,39,-99.99,,,0.00,Acu-Link.com,2013-11-15 19:43:00,
2013-11-15 11:59:00,73.4,46.9,29.48,NW,315,6.8,-999.0,39,-99.99,,,0.00,Acu-Link.com,2013-11-15 19:59:00,
2013-11-15 12:14:00,73.8,46.6,29.47,NNE,22,6.8,-999.0,38,-99.99,,,0.00,Acu-Link.com,2013-11-15 20:14:00,
2013-11-15 12:29:00,74.5,47.2,29.46,West,270,7.3,-999.0,38,-99.99,,,0.00,Acu-Link.com,2013-11-15 20:29:00,
2013-11-15 12:44:00,74.7,46.7,29.46,West,270,8.3,-999.0,37,-99.99,,,0.00,Acu-Link.com,2013-11-15 20:44:00,
2013-11-15 12:59:00,74.5,46.5,29.45,WNW,292,6.8,-999.0,37,-99.99,,,0.00,Acu-Link.com,2013-11-15 20:59:00,
2013-11-15 13:14:00,74.8,46.8,29.45,WNW,292,9.9,-999.0,37,-99.99,,,0.00,Acu-Link.com,2013-11-15 21:14:00,
2013-11-15 13:29:00,74.8,46.8,29.44,West,270,13.5,-999.0,37,-99.99,,,0.00,Acu-Link.com,2013-11-15 21:29:00,
2013-11-15 13:44:00,74.5,46.5,29.43,West,270,7.8,-999.0,37,-99.99,,,0.00,Acu-Link.com,2013-11-15 21:44:00,
2013-11-15 13:59:00,74.3,46.3,29.44,West,270,9.9,-999.0,37,-99.99,,,0.00,Acu-Link.com,2013-11-15 21:59:00,
2013-11-15 14:14:00,73.4,47.6,29.44,WNW,292,8.9,-999.0,40,-99.99,,,0.00,Acu-Link.com,2013-11-15 22:14:00,
2013-11-15 14:29:00,73.2,46.7,29.44,West,270,8.3,-999.0,39,-99.99,,,0.00,Acu-Link.com,2013-11-15 22:29:00,
2013-11-15 14:44:00,73.2,45.4,29.45,WNW,292,8.9,-999.0,37,-99.99,,,0.00,Acu-Link.com,2013-11-15 22:44:00,
2013-11-15 15:00:00,72.5,44.7,29.44,West,270,7.3,-999.0,37,-99.99,,,0.00,Acu-Link.com,2013-11-15 23:00:00,
2013-11-15 15:15:00,71.8,44.8,29.44,WNW,292,11.9,-999.0,38,-99.99,,,0.00,Acu-Link.com,2013-11-15 23:15:00,
2013-11-15 15:30:00,71.2,45.0,29.44,WNW,292,9.4,-999.0,39,-99.99,,,0.00,Acu-Link.com,2013-11-15 23:30:00,
2013-11-15 15:45:00,70.3,44.8,29.45,West,270,9.9,-999.0,40,-99.99,,,0.00,Acu-Link.com,2013-11-15 23:45:00,
2013-11-15 16:00:00,70.0,44.6,29.45,NNW,337,8.9,-999.0,40,-99.99,,,0.00,Acu-Link.com,2013-11-16 00:00:00,
2013-11-15 16:15:00,69.6,43.5,29.45,NNW,337,7.8,-999.0,39,-99.99,,,0.00,Acu-Link.com,2013-11-16 00:15:00,
2013-11-15 16:31:00,69.1,44.4,29.44,WSW,247,11.4,-999.0,41,-99.99,,,0.00,Acu-Link.com,2013-11-16 00:31:00,
2013-11-15 16:46:00,69.1,43.8,29.45,West,270,6.3,-999.0,40,-99.99,,,0.00,Acu-Link.com,2013-11-16 00:46:00,
2013-11-15 17:01:00,68.7,43.4,29.45,WSW,247,6.3,-999.0,40,-99.99,,,0.00,Acu-Link.com,2013-11-16 01:01:00,
2013-11-15 17:16:00,68.4,43.8,29.45,WNW,292,7.3,-999.0,41,-99.99,,,0.00,Acu-Link.com,2013-11-16 01:16:00,
2013-11-15 17:31:00,68.4,43.8,29.45,WNW,292,9.4,-999.0,41,-99.99,,,0.00,Acu-Link.com,2013-11-16 01:31:00,
2013-11-15 17:46:00,68.2,44.2,29.47,NNW,337,8.9,-999.0,42,-99.99,,,0.00,Acu-Link.com,2013-11-16 01:46:00,
2013-11-15 18:01:00,67.1,45.0,29.47,SSE,157,10.4,-999.0,45,-99.99,,,0.00,Acu-Link.com,2013-11-16 02:01:00,
2013-11-15 18:16:00,66.9,45.4,29.47,West,270,9.4,-999.0,46,-99.99,,,0.00,Acu-Link.com,2013-11-16 02:16:00,
2013-11-15 18:31:00,66.2,45.4,29.48,WSW,247,10.9,-999.0,47,-99.99,,,0.00,Acu-Link.com,2013-11-16 02:31:00,
2013-11-15 18:46:00,66.2,45.4,29.48,WNW,292,7.8,-999.0,47,-99.99,,,0.00,Acu-Link.com,2013-11-16 02:46:00,
2013-11-15 19:02:00,66.0,45.2,29.47,WSW,247,8.3,-999.0,47,-99.99,,,0.00,Acu-Link.com,2013-11-16 03:02:00,
2013-11-15 19:17:00,65.8,45.6,29.48,NW,315,12.5,-999.0,48,-99.99,,,0.00,Acu-Link.com,2013-11-16 03:17:00,
2013-11-15 19:32:00,65.5,45.8,29.48,NW,315,13.5,-999.0,49,-99.99,,,0.00,Acu-Link.com,2013-11-16 03:32:00,
2013-11-15 19:47:00,65.5,45.8,29.49,West,270,11.4,-999.0,49,-99.99,,,0.00,Acu-Link.com,2013-11-16 03:47:00,
2013-11-15 20:02:00,65.1,46.5,29.49,West,270,11.4,-999.0,51,-99.99,,,0.00,Acu-Link.com,2013-11-16 04:02:00,
2013-11-15 20:17:00,65.1,46.0,29.50,NNE,22,8.3,-999.0,50,-99.99,,,0.00,Acu-Link.com,2013-11-16 04:17:00,
2013-11-15 20:32:00,65.1,46.0,29.50,WSW,247,7.8,-999.0,50,-99.99,,,0.00,Acu-Link.com,2013-11-16 04:32:00,
2013-11-15 20:47:00,64.9,46.3,29.52,WNW,292,9.4,-999.0,51,-99.99,,,0.00,Acu-Link.com,2013-11-16 04:47:00,
2013-11-15 21:02:00,64.8,46.2,29.52,NW,315,12.5,-999.0,51,-99.99,,,0.00,Acu-Link.com,2013-11-16 05:02:00,
2013-11-15 21:17:00,64.4,46.4,29.52,NW,315,8.9,-999.0,52,-99.99,,,0.00,Acu-Link.com,2013-11-16 05:17:00,
2013-11-15 21:32:00,64.2,46.2,29.51,West,270,11.9,-999.0,52,-99.99,,,0.00,Acu-Link.com,2013-11-16 05:32:00,
2013-11-15 21:47:00,64.2,46.7,29.51,West,270,10.4,-999.0,53,-99.99,,,0.00,Acu-Link.com,2013-11-16 05:47:00,
2013-11-15 22:02:00,64.2,46.2,29.53,NW,315,10.4,-999.0,52,-99.99,,,0.00,Acu-Link.com,2013-11-16 06:02:00,
2013-11-15 22:18:00,63.9,46.4,29.52,West,270,7.3,-999.0,53,-99.99,,,0.00,Acu-Link.com,2013-11-16 06:18:00,
2013-11-15 22:33:00,63.7,46.7,29.52,WSW,247,9.9,-999.0,54,-99.99,,,0.00,Acu-Link.com,2013-11-16 06:33:00,
2013-11-15 22:48:00,63.7,45.7,29.53,WNW,292,9.9,-999.0,52,-99.99,,,0.00,Acu-Link.com,2013-11-16 06:48:00,
2013-11-15 23:03:00,63.9,44.9,29.53,WNW,292,11.4,-999.0,50,-99.99,,,0.00,Acu-Link.com,2013-11-16 07:03:00,
2013-11-15 23:18:00,64.0,45.0,29.53,West,270,10.9,-999.0,50,-99.99,,,0.00,Acu-Link.com,2013-11-16 07:18:00,
2013-11-15 23:33:00,64.0,44.5,29.53,WSW,247,7.8,-999.0,49,-99.99,,,0.00,Acu-Link.com,2013-11-16 07:33:00,
2013-11-15 23:49:00,63.9,43.8,29.53,West,270,9.9,-999.0,48,-99.99,,,0.00,Acu-Link.com,2013-11-16 07:49:00,